This is the latest recevied weather packets stored in our database for station/object ED2YAA-10. If no packets are shown the sender has not sent any weather packets the latest 10 day(s).
| Time | Temp. | Humidity | Pressure | Rain* | Wind** | Luminosity | Snow |
|---|---|---|---|---|---|---|---|
| 1777682501 | 27.78° C | 29% | 930.4 hPa | - | - | - | - |
| 1777681602 | 28.33° C | 28% | 930.7 hPa | - | - | - | - |
| 1777680702 | 28.33° C | 28% | 930.8 hPa | - | - | - | - |
| 1777679800 | 28.33° C | 28% | 930.9 hPa | - | - | - | - |
| 1777678902 | 28.33° C | 28% | 931 hPa | - | - | - | - |
| 1777677999 | 28.89° C | 27% | 931 hPa | - | - | - | - |
| 1777677099 | 29.44° C | 27% | 931.1 hPa | - | - | - | - |
| 1777676199 | 29.44° C | 27% | 931.1 hPa | - | - | - | - |
| 1777675299 | 30° C | 26% | 931.2 hPa | - | - | - | - |
| 1777674399 | 30° C | 26% | 931.3 hPa | - | - | - | - |
| 1777673500 | 30° C | 25% | 931.1 hPa | - | - | - | - |
| 1777672598 | 31.11° C | 24% | 931.3 hPa | - | - | - | - |
| 1777671701 | 31.11° C | 24% | 931.5 hPa | - | - | - | - |
| 1777670795 | 31.67° C | 24% | 931.6 hPa | - | - | - | - |
| 1777669896 | 31.67° C | 24% | 931.6 hPa | - | - | - | - |
| 1777668995 | 32.22° C | 24% | 931.7 hPa | - | - | - | - |
| 1777668095 | 32.78° C | 24% | 931.7 hPa | - | - | - | - |
| 1777665397 | 33.89° C | 21% | 931.4 hPa | - | - | - | - |
| 1777664498 | 34.44° C | 21% | 931.1 hPa | - | - | - | - |
| 1777663597 | 35.56° C | 22% | 931.2 hPa | - | - | - | - |
| 1777662695 | 36.11° C | 21% | 931.1 hPa | - | - | - | - |
| 1777661818 | 36.67° C | 20% | 931.1 hPa | - | - | - | - |
| 1777660918 | 37.22° C | 20% | 930.6 hPa | - | - | - | - |
| 1777660018 | 37.78° C | 20% | 930.9 hPa | - | - | - | - |
| 1777659118 | 38.33° C | 19% | 931 hPa | - | - | - | - |
* Rain since midnight (hover to see other rain measurements)
** Current wind speed in m/s (hover to see current wind gust speed)